00:00:01,7255BFE0,0,0,19164,0,0,143
00:00:33,7255C3E0,0,0,19164,0,0,142
00:01:05,7255C7E0,0,0,19164,0,0,141
00:01:37,7255CBE0,0,0,19164,0,0,141
00:02:41,7255D3E0,0,0,19164,0,0,143
00:03:13,7255D7E0,0,0,19164,0,0,144
00:03:45,7255DBE0,0,0,19164,0,0,145
00:04:17,7255DFE0,0,0,19164,0,0,145
00:04:49,7255E3E0,0,0,19164,0,0,146
00:05:21,7255E7E0,0,0,19164,0,0,146
00:05:53,7255EBE0,0,0,19164,0,0,145
00:06:57,7255F3E0,0,0,19164,0,0,142
00:07:29,7255F7E0,0,0,19164,0,0,141
00:08:01,7255FBE0,0,0,19164,0,0,141
00:08:33,7255FFE0,0,0,19164,0,0,142
00:09:05,725603E0,0,0,19164,0,0,143
00:09:37,725607E0,0,0,19164,0,0,144
00:10:09,72560BE0,0,0,19164,0,0,144
00:11:13,725613E0,0,0,19164,0,0,145
00:11:45,725617E0,0,0,19164,0,0,146
00:12:17,72561BE0,0,0,19164,0,0,146
00:12:49,72561FE0,0,0,19164,0,0,144
00:13:21,725623E0,0,0,19164,0,0,143
00:13:53,725627E0,0,0,19164,0,0,142
00:14:25,72562BE0,0,0,19164,0,0,141
00:15:29,725633E0,0,0,19164,0,0,142
00:16:01,725637E0,0,0,19164,0,0,143
00:16:33,72563BE0,0,0,19164,0,0,144
00:17:05,72563FE0,0,0,19164,0,0,144
00:17:37,725643E0,0,0,19164,0,0,145
00:18:09,725647E0,0,0,19164,0,0,145
00:18:41,72564BE0,0,0,19164,0,0,146
00:19:45,725653E0,0,0,19164,0,0,144
00:20:17,725657E0,0,0,19164,0,0,143
00:20:49,72565BE0,0,0,19164,0,0,142
00:21:21,72565FE0,0,0,19164,0,0,141
00:21:53,725663E0,0,0,19164,0,0,141
00:22:25,725667E0,0,0,19164,0,0,142
00:22:57,72566BE0,0,0,19164,0,0,143
00:24:01,725673E0,0,0,19164,0,0,145
00:24:33,725677E0,0,0,19164,0,0,145
00:25:05,72567BE0,0,0,19164,0,0,145
00:25:37,72567FE0,0,0,19164,0,0,146
00:26:09,725683E0,0,0,19164,0,0,146
00:26:41,725687E0,0,0,19164,0,0,144
00:27:13,72568BE0,0,0,19164,0,0,143
00:28:17,725693E0,0,0,19164,0,0,141
00:28:49,725697E0,0,0,19164,0,0,141
00:29:21,72569BE0,0,0,19164,0,0,142
00:29:53,72569FE0,0,0,19164,0,0,143
00:30:25,7256A3E0,0,0,19164,0,0,144
00:30:57,7256A7E0,0,0,19164,0,0,145
00:31:29,7256ABE0,0,0,19164,0,0,145
00:32:33,7256B3E0,0,0,19164,0,0,146
00:33:05,7256B7E0,0,0,19164,0,0,146
00:33:37,7256BBE0,0,0,19164,0,0,144
00:34:09,7256BFE0,0,0,19164,0,0,143
00:34:41,7256C3E0,0,0,19164,0,0,141
00:35:13,7256C7E0,0,0,19164,0,0,141
00:35:45,7256CBE0,0,0,19164,0,0,141
00:36:49,7256D3E0,0,0,19164,0,0,143
00:37:21,7256D7E0,0,0,19164,0,0,144
00:37:53,7256DBE0,0,0,19164,0,0,144
00:38:25,7256DFE0,0,0,19164,0,0,145
00:38:57,7256E3E0,0,0,19164,0,0,146
00:39:29,7256E7E0,0,0,19164,0,0,146
00:40:01,7256EBE0,0,0,19164,0,0,146
00:41:05,7256F3E0,0,0,19164,0,0,143
00:41:37,7256F7E0,0,0,19164,0,0,141
00:42:09,7256FBE0,0,0,19164,0,0,141
00:42:41,7256FFE0,0,0,19164,0,0,142
00:43:13,725703E0,0,0,19164,0,0,142
00:43:45,725707E0,0,0,19164,0,0,143
00:44:17,72570BE0,0,0,19164,0,0,144
00:45:21,725713E0,0,0,19164,0,0,145
00:45:53,725717E0,0,0,19164,0,0,146
00:46:25,72571BE0,0,0,19164,0,0,146
00:46:57,72571FE0,0,0,19164,0,0,145
00:47:29,725723E0,0,0,19164,0,0,144
00:48:01,725727E0,0,0,19164,0,0,142
00:48:33,72572BE0,0,0,19164,0,0,141
00:49:37,725733E0,0,0,19164,0,0,142
00:50:09,725737E0,0,0,19164,0,0,143
00:50:41,72573BE0,0,0,19164,0,0,144
00:51:13,72573FE0,0,0,19164,0,0,144
00:51:45,725743E0,0,0,19164,0,0,145
00:52:17,725747E0,0,0,19164,0,0,145
00:52:49,72574BE0,0,0,19164,0,0,146
00:53:53,725753E0,0,0,19164,0,0,144
00:54:25,725757E0,0,0,19164,0,0,143
00:54:57,72575BE0,0,0,19164,0,0,142
00:55:29,72575FE0,0,0,19164,0,0,141
00:56:01,725763E0,0,0,19164,0,0,141
00:56:33,725767E0,0,0,19164,0,0,142
00:57:05,72576BE0,0,0,19164,0,0,143
00:58:09,725773E0,0,0,19164,0,0,145
00:58:41,725777E0,0,0,19164,0,0,145
00:58:57,725779E0,0,0,19164,0,0,145
00:59:29,72577DE0,0,0,19164,0,0,146
00:59:45,72577FE0,0,0,19164,0,0,146
01:00:01,725781E0,0,0,19164,0,0,146
01:00:33,725785E0,0,0,19164,0,0,144
01:00:49,725787E0,0,0,19164,0,0,144
01:01:05,725789E0,0,0,19164,0,0,143
01:01:37,72578DE0,0,0,19164,0,0,142
01:02:09,725791E0,0,0,19164,0,0,141
01:02:41,725795E0,0,0,19164,0,0,141
01:02:57,725797E0,0,0,19164,0,0,142
01:03:13,725799E0,0,0,19164,0,0,142
01:03:45,72579DE0,0,0,19164,0,0,143
01:04:01,72579FE0,0,0,19164,0,0,143
01:04:17,7257A1E0,0,0,19164,0,0,144
01:04:49,7257A5E0,0,0,19164,0,0,144
01:05:05,7257A7E0,0,0,19164,0,0,145
01:05:21,7257A9E0,0,0,19164,0,0,145
01:05:53,7257ADE0,0,0,19164,0,0,145
01:06:25,7257B1E0,0,0,19164,0,0,146
01:06:57,7257B5E0,0,0,19164,0,0,146
01:07:13,7257B7E0,0,0,19164,0,0,145
01:07:29,7257B9E0,0,0,19164,0,0,144
01:08:01,7257BDE0,0,0,19164,0,0,143
01:08:17,7257BFE0,0,0,19164,0,0,142
01:08:33,7257C1E0,0,0,19164,0,0,142
01:09:05,7257C5E0,0,0,19164,0,0,141
01:09:21,7257C7E0,0,0,19164,0,0,141
01:09:37,7257C9E0,0,0,19164,0,0,141
01:10:09,7257CDE0,0,0,19164,0,0,142
01:10:41,7257D1E0,0,0,19164,0,0,143
01:11:13,7257D5E0,0,0,19164,0,0,144
01:11:29,7257D7E0,0,0,19164,0,0,144
01:11:45,7257D9E0,0,0,19164,0,0,145
01:12:17,7257DDE0,0,0,19164,0,0,145
01:12:33,7257DFE0,0,0,19164,0,0,145
01:12:49,7257E1E0,0,0,19164,0,0,145
01:13:21,7257E5E0,0,0,19164,0,0,146
01:13:37,7257E7E0,0,0,19164,0,0,146
01:13:53,7257E9E0,0,0,19164,0,0,146
01:14:25,7257EDE0,0,0,19164,0,0,144
01:14:57,7257F1E0,0,0,19164,0,0,143
01:15:29,7257F5E0,0,0,19164,0,0,142
01:15:45,7257F7E0,0,0,19164,0,0,141
01:16:01,7257F9E0,0,0,19164,0,0,141
01:16:33,7257FDE0,0,0,19164,0,0,141
01:16:49,7257FFE0,0,0,19164,0,0,142
01:17:05,725801E0,0,0,19164,0,0,142
01:17:37,725805E0,0,0,19164,0,0,143
01:17:53,725807E0,0,0,19164,0,0,144
01:18:09,725809E0,0,0,19164,0,0,144
01:18:41,72580DE0,0,0,19164,0,0,145
01:19:13,725811E0,0,0,19164,0,0,145
01:19:45,725815E0,0,0,19164,0,0,146
01:20:01,725817E0,0,0,19164,0,0,146
01:20:17,725819E0,0,0,19164,0,0,146
01:20:49,72581DE0,0,0,19164,0,0,145
01:21:05,72581FE0,0,0,19164,0,0,145
01:21:21,725821E0,0,0,19164,0,0,144
01:21:53,725825E0,0,0,19164,0,0,142
01:22:09,725827E0,0,0,19164,0,0,142
01:22:25,725829E0,0,0,19164,0,0,141
01:22:57,72582DE0,0,0,19164,0,0,141
01:23:29,725831E0,0,0,19164,0,0,142
01:24:01,725835E0,0,0,19164,0,0,143
01:24:17,725837E0,0,0,19164,0,0,143
01:24:33,725839E0,0,0,19164,0,0,144
01:25:05,72583DE0,0,0,19164,0,0,144
01:25:21,72583FE0,0,0,19164,0,0,144
01:25:37,725841E0,0,0,19164,0,0,145
01:26:09,725845E0,0,0,19164,0,0,145
01:26:25,725847E0,0,0,19164,0,0,146
01:26:41,725849E0,0,0,19164,0,0,146
01:27:13,72584DE0,0,0,19164,0,0,146
01:27:45,725851E0,0,0,19164,0,0,145
01:28:17,725855E0,0,0,19164,0,0,144
01:28:33,725857E0,0,0,19164,0,0,143
01:28:49,725859E0,0,0,19164,0,0,142
01:29:21,72585DE0,0,0,19164,0,0,141
01:29:37,72585FE0,0,0,19164,0,0,141
01:29:53,725861E0,0,0,19164,0,0,141
01:30:25,725865E0,0,0,19164,0,0,142
01:30:41,725867E0,0,0,19164,0,0,142
01:30:57,725869E0,0,0,19164,0,0,143
01:31:29,72586DE0,0,0,19164,0,0,144
01:32:01,725871E0,0,0,19164,0,0,144
01:32:33,725875E0,0,0,19164,0,0,145
01:32:49,725877E0,0,0,19164,0,0,145
01:33:05,725879E0,0,0,19164,0,0,146
01:33:37,72587DE0,0,0,19164,0,0,146
01:33:53,72587FE0,0,0,19164,0,0,146
01:34:09,725881E0,0,0,19164,0,0,145
01:34:41,725885E0,0,0,19164,0,0,144
01:34:57,725887E0,0,0,19164,0,0,144
01:35:13,725889E0,0,0,19164,0,0,143
01:35:45,72588DE0,0,0,19164,0,0,142
01:36:17,725891E0,0,0,19164,0,0,141
01:36:49,725895E0,0,0,19164,0,0,141
01:37:05,725897E0,0,0,19164,0,0,142
01:37:21,725899E0,0,0,19164,0,0,142
01:37:53,72589DE0,0,0,19164,0,0,143
01:38:09,72589FE0,0,0,19164,0,0,143
01:38:25,7258A1E0,0,0,19164,0,0,144
01:38:57,7258A5E0,0,0,19164,0,0,145
01:39:13,7258A7E0,0,0,19164,0,0,145
01:39:29,7258A9E0,0,0,19164,0,0,145
01:40:01,7258ADE0,0,0,19164,0,0,145
01:40:33,7258B1E0,0,0,19164,0,0,146
01:41:05,7258B5E0,0,0,19164,0,0,145
01:41:21,7258B7E0,0,0,19164,0,0,145
01:41:37,7258B9E0,0,0,19164,0,0,144
01:42:09,7258BDE0,0,0,19164,0,0,142
01:42:25,7258BFE0,0,0,19164,0,0,142
01:42:41,7258C1E0,0,0,19164,0,0,141
01:43:13,7258C5E0,0,0,19164,0,0,141
01:43:29,7258C7E0,0,0,19164,0,0,141
01:43:45,7258C9E0,0,0,19164,0,0,142
01:44:17,7258CDE0,0,0,19164,0,0,143
01:44:49,7258D1E0,0,0,19164,0,0,143
01:45:21,7258D5E0,0,0,19164,0,0,144
01:45:37,7258D7E0,0,0,19164,0,0,144
01:45:53,7258D9E0,0,0,19164,0,0,145
01:46:25,7258DDE0,0,0,19164,0,0,145
01:46:41,7258DFE0,0,0,19164,0,0,145
01:46:57,7258E1E0,0,0,19164,0,0,145
01:47:29,7258E5E0,0,0,19164,0,0,146
01:47:45,7258E7E0,0,0,19164,0,0,146
01:48:01,7258E9E0,0,0,19164,0,0,146
01:48:33,7258EDE0,0,0,19164,0,0,144
01:49:05,7258F1E0,0,0,19164,0,0,143
01:49:37,7258F5E0,0,0,19164,0,0,142
01:49:53,7258F7E0,0,0,19164,0,0,141
01:50:09,7258F9E0,0,0,19164,0,0,141
01:50:41,7258FDE0,0,0,19164,0,0,141
01:50:57,7258FFE0,0,0,19164,0,0,142
01:51:13,725901E0,0,0,19164,0,0,142
01:51:45,725905E0,0,0,19164,0,0,143
01:52:01,725907E0,0,0,19164,0,0,144
01:52:17,725909E0,0,0,19164,0,0,144
01:52:49,72590DE0,0,0,19164,0,0,145
01:53:21,725911E0,0,0,19164,0,0,145
01:53:53,725915E0,0,0,19164,0,0,145
01:54:09,725917E0,0,0,19164,0,0,146
01:54:25,725919E0,0,0,19164,0,0,146
01:54:57,72591DE0,0,0,19164,0,0,146
01:55:13,72591FE0,0,0,19164,0,0,145
01:55:29,725921E0,0,0,19164,0,0,144
01:56:01,725925E0,0,0,19164,0,0,142
01:56:17,725927E0,0,0,19164,0,0,142
01:56:33,725929E0,0,0,19164,0,0,141
01:57:05,72592DE0,0,0,19164,0,0,141
01:57:37,725931E0,0,0,19164,0,0,142
01:58:09,725935E0,0,0,19164,0,0,143
01:58:25,725937E0,0,0,19164,0,0,143
01:58:41,725939E0,0,0,19164,0,0,143
01:59:13,72593DE0,0,0,19164,0,0,144
01:59:29,72593FE0,0,0,19164,0,0,144
01:59:45,725941E0,0,0,19164,0,0,145
02:00:17,725945E0,0,0,19164,0,0,145
02:00:33,725947E0,0,0,19164,0,0,145
02:00:49,725949E0,0,0,19164,0,0,146
02:01:21,72594DE0,0,0,19164,0,0,146
02:01:53,725951E0,0,0,19164,0,0,145
02:02:25,725955E0,0,0,19164,0,0,144
02:02:41,725957E0,0,0,19164,0,0,143
02:02:57,725959E0,0,0,19164,0,0,142
02:03:29,72595DE0,0,0,19164,0,0,141
02:03:45,72595FE0,0,0,19164,0,0,141
02:04:01,725961E0,0,0,19164,0,0,141
02:04:33,725965E0,0,0,19164,0,0,142
02:04:49,725967E0,0,0,19164,0,0,142
02:05:05,725969E0,0,0,19164,0,0,143
02:05:37,72596DE0,0,0,19164,0,0,143
02:06:09,725971E0,0,0,19164,0,0,144
02:06:41,725975E0,0,0,19164,0,0,145
02:06:57,725977E0,0,0,19164,0,0,145
02:07:13,725979E0,0,0,19164,0,0,145
02:07:45,72597DE0,0,0,19164,0,0,146
02:08:01,72597FE0,0,0,19164,0,0,146
02:08:17,725981E0,0,0,19164,0,0,146
02:08:49,725985E0,0,0,19164,0,0,145
02:09:05,725987E0,0,0,19164,0,0,144
02:09:21,725989E0,0,0,19164,0,0,144
02:09:53,72598DE0,0,0,19164,0,0,142
02:10:25,725991E0,0,0,19164,0,0,141
02:10:57,725995E0,0,0,19164,0,0,141
02:11:13,725997E0,0,0,19164,0,0,142
02:11:29,725999E0,0,0,19164,0,0,142
02:12:01,72599DE0,0,0,19164,0,0,143
02:12:17,72599FE0,0,0,19164,0,0,143
02:12:33,7259A1E0,0,0,19164,0,0,144
02:13:05,7259A5E0,0,0,19164,0,0,144
02:13:21,7259A7E0,0,0,19164,0,0,145
02:13:37,7259A9E0,0,0,19164,0,0,145
02:14:09,7259ADE0,0,0,19164,0,0,145
02:14:41,7259B1E0,0,0,19164,0,0,146
02:15:13,7259B5E0,0,0,19164,0,0,146
02:15:29,7259B7E0,0,0,19164,0,0,145
02:15:45,7259B9E0,0,0,19164,0,0,144
02:16:17,7259BDE0,0,0,19164,0,0,143
02:16:33,7259BFE0,0,0,19164,0,0,143
02:16:49,7259C1E0,0,0,19164,0,0,142
02:17:21,7259C5E0,0,0,19164,0,0,141
02:17:37,7259C7E0,0,0,19164,0,0,141
02:17:53,7259C9E0,0,0,19164,0,0,141
02:18:25,7259CDE0,0,0,19164,0,0,142
02:18:57,7259D1E0,0,0,19164,0,0,143
02:19:29,7259D5E0,0,0,19164,0,0,144
02:19:45,7259D7E0,0,0,19164,0,0,144
02:20:01,7259D9E0,0,0,19164,0,0,144
02:20:33,7259DDE0,0,0,19164,0,0,145
02:20:49,7259DFE0,0,0,19164,0,0,145
02:21:05,7259E1E0,0,0,19164,0,0,145
02:21:37,7259E5E0,0,0,19164,0,0,146
02:21:53,7259E7E0,0,0,19164,0,0,146
02:22:09,7259E9E0,0,0,19164,0,0,146
02:22:41,7259EDE0,0,0,19164,0,0,145
02:23:13,7259F1E0,0,0,19164,0,0,143
02:23:45,7259F5E0,0,0,19164,0,0,142
02:24:01,7259F7E0,0,0,19164,0,0,141
02:24:17,7259F9E0,0,0,19164,0,0,141
02:24:49,7259FDE0,0,0,19164,0,0,141
02:25:05,7259FFE0,0,0,19164,0,0,141
02:25:21,725A01E0,0,0,19164,0,0,142
02:25:53,725A05E0,0,0,19164,0,0,143
02:26:09,725A07E0,0,0,19164,0,0,143
02:26:25,725A09E0,0,0,19164,0,0,143
02:26:57,725A0DE0,0,0,19164,0,0,144
02:27:29,725A11E0,0,0,19164,0,0,145
02:28:01,725A15E0,0,0,19164,0,0,145
02:28:17,725A17E0,0,0,19164,0,0,145
02:28:33,725A19E0,0,0,19164,0,0,146
02:29:05,725A1DE0,0,0,19164,0,0,146
02:29:21,725A1FE0,0,0,19164,0,0,145
02:29:37,725A21E0,0,0,19164,0,0,145
02:30:09,725A25E0,0,0,19164,0,0,143
02:30:25,725A27E0,0,0,19164,0,0,142
02:30:41,725A29E0,0,0,19164,0,0,142
02:31:13,725A2DE0,0,0,19164,0,0,141
02:31:45,725A31E0,0,0,19164,0,0,141
02:32:17,725A35E0,0,0,19164,0,0,142
02:32:33,725A37E0,0,0,19164,0,0,143
02:32:49,725A39E0,0,0,19164,0,0,143
02:33:21,725A3DE0,0,0,19164,0,0,144
02:33:37,725A3FE0,0,0,19164,0,0,144
02:33:53,725A41E0,0,0,19164,0,0,144
02:34:25,725A45E0,0,0,19164,0,0,145
02:34:41,725A47E0,0,0,19164,0,0,145
02:34:57,725A49E0,0,0,19164,0,0,145
02:35:29,725A4DE0,0,0,19164,0,0,146
02:36:01,725A51E0,0,0,19164,0,0,146
02:36:33,725A55E0,0,0,19164,0,0,145
02:36:49,725A57E0,0,0,19164,0,0,144
02:37:05,725A59E0,0,0,19164,0,0,143
02:37:37,725A5DE0,0,0,19164,0,0,142
02:37:53,725A5FE0,0,0,19164,0,0,141
02:38:09,725A61E0,0,0,19164,0,0,141
02:38:41,725A65E0,0,0,19164,0,0,141
02:38:57,725A67E0,0,0,19164,0,0,142
02:39:13,725A69E0,0,0,19164,0,0,142
02:39:45,725A6DE0,0,0,19164,0,0,143
02:40:17,725A71E0,0,0,19164,0,0,144
02:40:49,725A75E0,0,0,19164,0,0,145
02:41:05,725A77E0,0,0,19164,0,0,145
02:41:21,725A79E0,0,0,19164,0,0,145
02:41:53,725A7DE0,0,0,19164,0,0,145
02:42:09,725A7FE0,0,0,19164,0,0,146
02:42:25,725A81E0,0,0,19164,0,0,146
02:42:57,725A85E0,0,0,19164,0,0,145
02:43:13,725A87E0,0,0,19164,0,0,144
02:43:29,725A89E0,0,0,19164,0,0,144
02:44:01,725A8DE0,0,0,19164,0,0,142
02:44:33,725A91E0,0,0,19164,0,0,141
02:45:05,725A95E0,0,0,19164,0,0,141
02:45:21,725A97E0,0,0,19164,0,0,141
02:45:37,725A99E0,0,0,19164,0,0,142
02:46:25,725A9FE0,0,0,19164,0,0,143
02:46:57,725AA3E0,0,0,19164,0,0,144
02:47:29,725AA7E0,0,0,19164,0,0,144
02:48:01,725AABE0,0,0,19164,0,0,145
02:49:05,725AB3E0,0,0,19164,0,0,146
02:49:37,725AB7E0,0,0,19164,0,0,145
02:50:09,725ABBE0,0,0,19164,0,0,144
02:50:41,725ABFE0,0,0,19164,0,0,143
02:51:13,725AC3E0,0,0,19164,0,0,141
02:51:45,725AC7E0,0,0,19164,0,0,141
02:52:17,725ACBE0,0,0,19164,0,0,142
02:53:21,725AD3E0,0,0,19164,0,0,143
02:53:53,725AD7E0,0,0,19164,0,0,144
02:54:25,725ADBE0,0,0,19164,0,0,144
02:54:57,725ADFE0,0,0,19164,0,0,145
02:55:29,725AE3E0,0,0,19164,0,0,146
02:56:01,725AE7E0,0,0,19164,0,0,146
02:56:33,725AEBE0,0,0,19164,0,0,145
02:57:37,725AF3E0,0,0,19164,0,0,142
02:58:09,725AF7E0,0,0,19164,0,0,141
02:58:41,725AFBE0,0,0,19164,0,0,141
02:59:13,725AFFE0,0,0,19164,0,0,142
02:59:45,725B03E0,0,0,19164,0,0,143
03:00:17,725B07E0,0,0,19164,0,0,143
03:00:49,725B0BE0,0,0,19164,0,0,144
03:01:53,725B13E0,0,0,19164,0,0,145
03:02:25,725B17E0,0,0,19164,0,0,146
03:02:57,725B1BE0,0,0,19164,0,0,146
03:03:29,725B1FE0,0,0,19164,0,0,145
03:04:01,725B23E0,0,0,19164,0,0,143
03:04:33,725B27E0,0,0,19164,0,0,142
03:05:05,725B2BE0,0,0,19164,0,0,141
03:06:09,725B33E0,0,0,19164,0,0,142
03:06:41,725B37E0,0,0,19164,0,0,143
03:07:13,725B3BE0,0,0,19164,0,0,144
03:07:45,725B3FE0,0,0,19164,0,0,144
03:08:17,725B43E0,0,0,19164,0,0,145
03:08:49,725B47E0,0,0,19164,0,0,145
03:09:21,725B4BE0,0,0,19164,0,0,146
03:10:25,725B53E0,0,0,19164,0,0,145
03:10:57,725B57E0,0,0,19164,0,0,143
03:11:29,725B5BE0,0,0,19164,0,0,142
03:12:01,725B5FE0,0,0,19164,0,0,141
03:12:33,725B63E0,0,0,19164,0,0,141
03:13:05,725B67E0,0,0,19164,0,0,142
03:13:37,725B6BE0,0,0,19164,0,0,143
03:14:41,725B73E0,0,0,19164,0,0,144
03:15:13,725B77E0,0,0,19164,0,0,145
03:15:45,725B7BE0,0,0,19164,0,0,145
03:16:17,725B7FE0,0,0,19164,0,0,146
03:16:49,725B83E0,0,0,19164,0,0,146
03:17:21,725B87E0,0,0,19164,0,0,145
03:17:53,725B8BE0,0,0,19164,0,0,143
03:18:57,725B93E0,0,0,19164,0,0,141
03:19:29,725B97E0,0,0,19164,0,0,141
03:20:01,725B9BE0,0,0,19164,0,0,142
03:20:33,725B9FE0,0,0,19164,0,0,143
03:21:05,725BA3E0,0,0,19164,0,0,144
03:21:37,725BA7E0,0,0,19164,0,0,144
03:22:09,725BABE0,0,0,19164,0,0,145
03:23:13,725BB3E0,0,0,19164,0,0,146
03:23:45,725BB7E0,0,0,19164,0,0,146
03:24:17,725BBBE0,0,0,19164,0,0,145
03:24:49,725BBFE0,0,0,19164,0,0,143
03:25:21,725BC3E0,0,0,19164,0,0,142
03:25:53,725BC7E0,0,0,19164,0,0,141
03:26:25,725BCBE0,0,0,19164,0,0,141
03:27:29,725BD3E0,0,0,19164,0,0,143
03:28:01,725BD7E0,0,0,19164,0,0,144
03:28:33,725BDBE0,0,0,19164,0,0,144
03:29:05,725BDFE0,0,0,19164,0,0,145
03:29:37,725BE3E0,0,0,19164,0,0,145
03:30:09,725BE7E0,0,0,19164,0,0,146
03:30:41,725BEBE0,0,0,19164,0,0,146
03:31:45,725BF3E0,0,0,19164,0,0,143
03:32:17,725BF7E0,0,0,19164,0,0,142
03:32:49,725BFBE0,0,0,19164,0,0,141
03:33:21,725BFFE0,0,0,19164,0,0,141
03:33:53,725C03E0,0,0,19164,0,0,142
03:34:25,725C07E0,0,0,19164,0,0,143
03:34:57,725C0BE0,0,0,19164,0,0,144
03:36:01,725C13E0,0,0,19164,0,0,145
03:36:33,725C17E0,0,0,19164,0,0,145
03:37:05,725C1BE0,0,0,19164,0,0,146
03:37:37,725C1FE0,0,0,19164,0,0,146
03:38:09,725C23E0,0,0,19164,0,0,145
03:38:41,725C27E0,0,0,19164,0,0,143
03:39:13,725C2BE0,0,0,19164,0,0,142
03:40:17,725C33E0,0,0,19164,0,0,141
03:40:49,725C37E0,0,0,19164,0,0,142
03:41:21,725C3BE0,0,0,19164,0,0,143
03:41:53,725C3FE0,0,0,19164,0,0,144
03:42:25,725C43E0,0,0,19164,0,0,144
03:42:57,725C47E0,0,0,19164,0,0,145
03:43:29,725C4BE0,0,0,19164,0,0,145
03:44:33,725C53E0,0,0,19164,0,0,145
03:45:05,725C57E0,0,0,19164,0,0,144
03:45:37,725C5BE0,0,0,19164,0,0,143
03:46:09,725C5FE0,0,0,19164,0,0,141
03:46:41,725C63E0,0,0,19164,0,0,141
03:47:13,725C67E0,0,0,19164,0,0,142
03:47:45,725C6BE0,0,0,19164,0,0,143
03:48:49,725C73E0,0,0,19164,0,0,144
03:49:21,725C77E0,0,0,19164,0,0,145
03:49:53,725C7BE0,0,0,19164,0,0,145
03:50:25,725C7FE0,0,0,19375,6,0,145
03:50:57,725C83E0,0,0,19375,4,0,146
03:51:29,725C87E0,0,0,19376,4,0,145
03:52:01,725C8BE0,0,0,19376,5,0,143
03:53:05,725C93E0,0,0,19380,4,0,141
03:53:37,725C97E0,0,0,19377,4,0,141
03:54:09,725C9BE0,0,0,19378,6,0,142
03:54:41,725C9FE0,0,0,19379,3,0,143
03:55:13,725CA3E0,0,0,19379,4,0,144
03:55:45,725CA7E0,0,0,19379,4,0,144
03:56:17,725CABE0,0,0,19380,5,1,145
03:57:21,725CB3E0,0,0,19382,4,0,146
03:57:53,725CB7E0,0,0,19384,2,0,146
03:58:25,725CBBE0,0,0,19385,5,0,144
03:58:57,725CBFE0,0,0,19383,5,0,143
03:59:29,725CC3E0,0,0,19383,5,0,142
04:00:01,725CC7E0,0,0,19384,5,0,141
04:00:33,725CCBE0,0,0,19387,3,0,141
04:01:37,725CD3E0,0,0,19387,3,0,143
04:02:09,725CD7E0,0,0,19384,4,0,144
04:02:41,725CDBE0,0,0,19385,3,0,144
04:03:13,725CDFE0,0,0,19386,3,0,145
04:03:45,725CE3E0,0,0,19384,4,0,146
04:04:17,725CE7E0,0,0,19385,3,0,146
04:04:49,725CEBE0,0,0,19386,4,0,145
04:05:53,725CF3E0,0,0,19386,6,0,142
04:06:25,725CF7E0,0,0,19388,8,0,141
04:06:57,725CFBE0,0,0,19390,8,0,141
04:07:29,725CFFE0,0,0,19390,7,0,142
04:08:01,725D03E0,0,0,19390,8,0,143
04:08:33,725D07E0,0,0,19392,7,0,144
04:09:05,725D0BE0,0,0,19394,8,0,144
04:10:09,725D13E0,0,0,19397,4,0,145
04:10:41,725D17E0,0,0,19395,5,0,146
04:11:13,725D1BE0,0,0,19397,4,0,145
04:11:45,725D1FE0,0,0,19398,5,0,144
04:12:17,725D23E0,0,0,19397,4,0,143
04:12:49,725D27E0,0,0,19397,4,0,142
04:13:21,725D2BE0,0,0,19398,4,0,141
04:14:25,725D33E0,0,0,19401,2,0,143
04:14:57,725D37E0,0,0,19400,3,0,143
04:15:29,725D3BE0,0,0,19401,5,0,144
04:16:01,725D3FE0,0,0,19400,5,0,145
04:16:33,725D43E0,0,0,19401,3,0,145
04:17:05,725D47E0,0,0,19402,5,0,146
04:17:37,725D4BE0,0,0,19404,4,0,145
04:18:41,725D53E0,0,0,19405,5,0,143
04:19:13,725D57E0,0,0,19406,4,0,142
04:19:45,725D5BE0,0,0,19407,4,0,141
04:20:17,725D5FE0,0,0,19409,4,0,142
04:20:49,725D63E0,0,0,18840,0,0,143
04:21:21,725D67E0,0,0,19410,5,0,143
04:21:53,725D6BE0,0,0,19411,4,0,144
04:22:57,725D73E0,0,0,19414,3,0,145
04:23:29,725D77E0,0,0,19415,3,0,146
04:24:01,725D7BE0,0,0,19413,2,0,146
04:24:33,725D7FE0,0,0,19413,5,0,145
04:25:05,725D83E0,0,0,19415,4,0,143
04:25:37,725D87E0,0,0,19415,4,0,142
04:26:09,725D8BE0,0,0,19416,4,0,141
04:27:13,725D93E0,0,0,19416,4,0,142
04:27:45,725D97E0,0,0,19417,5,0,143
04:28:17,725D9BE0,0,0,19420,4,0,144
04:28:49,725D9FE0,0,0,19419,3,0,144
04:29:21,725DA3E0,0,0,19418,4,0,145
04:29:53,725DA7E0,0,0,19425,0,0,146
04:30:25,725DABE0,0,0,19416,2,0,146
04:31:29,725DB3E0,0,0,19414,1,0,144
04:32:01,725DB7E0,0,0,19415,2,0,142
04:32:33,725DBBE0,0,0,19417,1,0,141
04:33:05,725DBFE0,0,0,19418,2,0,141
04:33:37,725DC3E0,0,0,19417,4,0,142
04:34:09,725DC7E0,0,0,19419,3,0,143
04:34:41,725DCBE0,0,0,19420,3,0,144
04:35:45,725DD3E0,0,0,19419,4,0,145
04:36:17,725DD7E0,0,0,19423,3,0,146
04:36:49,725DDBE0,0,0,19423,4,0,146
04:37:21,725DDFE0,0,0,19423,3,0,145
04:37:53,725DE3E0,0,0,19425,4,0,144
04:38:25,725DE7E0,0,0,19425,4,1,142
04:38:57,725DEBE0,0,0,19426,6,0,141
04:40:01,725DF3E0,0,0,19429,6,0,142
04:40:33,725DF7E0,0,0,19429,5,0,143
04:41:05,725DFBE0,0,0,19432,5,0,144
04:41:37,725DFFE0,0,0,19433,4,0,144
04:42:09,725E03E0,0,0,19433,5,0,145
04:42:41,725E07E0,0,0,19435,5,0,146
04:43:13,725E0BE0,0,0,19436,5,0,146
04:44:17,725E13E0,0,0,19443,2,0,143
04:44:49,725E17E0,0,0,19439,5,0,142
04:45:21,725E1BE0,0,0,19439,4,0,141
04:45:53,725E1FE0,0,0,19441,5,1,141
04:46:25,725E23E0,0,0,19441,2,0,142
04:46:57,725E27E0,0,0,19443,2,0,143
04:47:29,725E2BE0,0,0,19444,3,0,144
04:48:33,725E33E0,0,0,19444,4,0,145
04:49:05,725E37E0,0,0,19443,5,0,146
04:49:37,725E3BE0,0,0,19445,3,0,146
04:50:09,725E3FE0,0,0,19446,2,0,144
04:50:41,725E43E0,0,0,19452,0,0,143
04:51:13,725E47E0,0,0,19444,3,0,142
04:51:45,725E4BE0,0,0,47,0,0,141
04:52:49,725E53E0,0,0,53,0,0,143
04:53:21,725E57E0,0,0,19439,1,0,143
04:53:53,725E5BE0,0,0,19434,3,0,144
04:54:25,725E5FE0,0,0,50,0,0,145
04:54:57,725E63E0,0,0,19443,0,0,145
04:55:29,725E67E0,0,0,19430,1,0,146
04:56:01,725E6BE0,0,0,19430,2,0,145
04:57:05,725E73E0,0,0,19430,5,0,142
04:57:37,725E77E0,0,0,19431,4,0,142
04:58:09,725E7BE0,0,0,19431,6,0,141
04:58:41,725E7FE0,0,0,19430,3,0,142
04:59:13,725E83E0,0,0,19426,3,0,143
04:59:45,725E87E0,0,0,19427,3,0,144
05:00:17,725E8BE0,0,0,19427,2,0,144
05:01:21,725E93E0,0,0,19430,0,0,145
05:01:53,725E97E0,0,0,19428,3,0,146
05:02:25,725E9BE0,0,0,19430,2,0,146
05:02:57,725E9FE0,0,0,19431,2,0,144
05:03:29,725EA3E0,0,0,19431,4,0,143
05:04:01,725EA7E0,0,0,19431,5,0,142
05:04:33,725EABE0,0,0,19436,1,0,141
05:05:37,725EB3E0,0,0,19430,1,0,143
05:06:09,725EB7E0,0,0,19430,2,0,144
05:06:41,725EBBE0,0,0,19429,4,0,144
05:07:13,725EBFE0,0,0,19430,3,0,145
05:07:45,725EC3E0,0,0,19429,1,0,145
05:08:17,725EC7E0,0,0,19429,4,0,146
05:08:49,725ECBE0,0,0,19428,3,0,145
05:09:53,725ED3E0,0,0,19430,3,0,143
05:10:25,725ED7E0,0,0,19431,3,0,142
05:10:57,725EDBE0,0,0,19432,2,0,141
05:11:29,725EDFE0,0,0,19437,1,0,142
05:12:01,725EE3E0,0,0,19431,2,0,143
05:12:33,725EE7E0,0,0,19434,0,0,144
05:13:05,725EEBE0,0,0,19433,1,0,144
05:14:09,725EF3E0,0,0,19432,3,0,145
05:14:41,725EF7E0,0,0,19427,2,0,146
05:15:13,725EFBE0,0,0,19428,2,0,145
05:15:45,725EFFE0,0,0,19428,3,0,144
05:16:17,725F03E0,0,0,19430,4,0,142
05:16:49,725F07E0,0,0,19430,3,0,141
05:18:57,725F17E0,0,0,19432,3,0,143
05:20:01,725F1FE0,0,0,19429,5,0,145
05:21:05,725F27E0,0,0,19429,2,0,146
05:23:13,725F37E0,0,0,19427,3,0,141
05:24:17,725F3FE0,0,0,19427,2,0,142
05:25:21,725F47E0,0,0,19427,2,0,144
05:27:29,725F57E0,0,0,19426,3,0,146
05:28:33,725F5FE0,0,0,19425,3,0,144
05:29:37,725F67E0,0,0,19427,5,0,141
05:31:45,725F77E0,0,0,19428,2,0,144
05:32:49,725F7FE0,0,0,19425,3,0,145
05:33:53,725F87E0,0,0,19424,4,0,146
05:36:01,725F97E0,0,0,19427,6,0,141
05:37:05,725F9FE0,0,0,19429,3,0,142
05:38:09,725FA7E0,0,0,19429,4,0,144
05:40:17,725FB7E0,0,0,19433,7,0,146
05:41:21,725FBFE0,0,0,19435,7,0,143
05:42:25,725FC7E0,0,0,19436,9,0,141
05:44:33,725FD7E0,0,0,19438,8,0,144
05:45:37,725FDFE0,0,0,19440,8,0,145
05:46:41,725FE7E0,0,0,19439,7,0,145
05:48:49,725FF7E0,0,0,19443,6,0,141
05:49:53,725FFFE0,0,0,19444,7,0,143
05:50:57,726007E0,0,0,19446,6,0,144
05:53:05,726017E0,0,0,19451,9,0,145
05:54:09,72601FE0,0,0,19455,6,0,143
05:55:13,726027E0,0,0,19457,6,0,141